| time (UTC) | temp F | wind direction | speed MPH | gust MPH | rain 1hr in | rain 24hr in | rain mn in | humidity % | barometer mb |
| 20260505004535 | 66 | 214 | 1.0 | 4.0 | 0.00 | 0.00 | 0.00 | 52 | 1002.0 |
| 20260505003034 | 68 | 216 | 5.0 | 10.0 | 0.00 | 0.01 | 0.00 | 49 | 1002.0 |
| 20260505001517 | 67 | 200 | 3.0 | 6.0 | 0.00 | 0.01 | 0.00 | 55 | 1002.0 |
| 20260505000016 | 69 | 219 | 4.0 | 6.0 | 0.00 | 0.01 | 0.00 | 49 | 1002.0 |
| 20260504234600 | 71 | 231 | 3.0 | 8.0 | 0.00 | 0.01 | 0.00 | 45 | 1002.0 |
| 20260504233112 | 71 | 231 | 5.0 | 10.0 | 0.00 | 0.01 | 0.00 | 41 | 1002.0 |
| 20260504231638 | 72 | 271 | 5.0 | 10.0 | 0.00 | 0.01 | 0.00 | 42 | 1002.1 |
| 20260504230038 | 73 | 251 | 6.0 | 10.0 | 0.00 | 0.01 | 0.00 | 41 | 1001.9 |
| 20260504224532 | 73 | 230 | 7.0 | 15.0 | 0.00 | 0.01 | 0.00 | 38 | 1001.8 |
| 20260504223026 | 73 | 255 | 12.0 | 20.0 | 0.00 | 0.01 | 0.00 | 38 | 1001.9 |
| 20260504221524 | 73 | 238 | 10.0 | 18.0 | 0.00 | 0.01 | 0.00 | 42 | 1001.7 |
| 20260504220023 | 73 | 214 | 13.0 | 18.0 | 0.00 | 0.01 | 0.00 | 40 | 1001.8 |
| 20260504214522 | 73 | 224 | 13.0 | 22.0 | 0.00 | 0.01 | 0.00 | 40 | 1001.8 |
| 20260504213021 | 74 | 205 | 14.0 | 22.0 | 0.00 | 0.01 | 0.00 | 41 | 1001.9 |
| 20260504211518 | 73 | 228 | 17.0 | 24.0 | 0.00 | 0.01 | 0.00 | 41 | 1002.0 |
| 20260504210019 | 73 | 220 | 16.0 | 23.0 | 0.00 | 0.01 | 0.00 | 43 | 1002.1 |
| 20260504204606 | 73 | 250 | 15.0 | 28.0 | 0.00 | 0.01 | 0.00 | 42 | 1002.2 |
| 20260504203058 | 73 | 217 | 16.0 | 24.0 | 0.00 | 0.01 | 0.00 | 43 | 1002.4 |
| 20260504201534 | 73 | 219 | 14.0 | 26.0 | 0.00 | 0.01 | 0.00 | 42 | 1002.5 |
| 20260504200033 | 72 | 238 | 10.0 | 21.0 | 0.00 | 0.01 | 0.00 | 44 | 1002.6 |
| 20260504194512 | 71 | 200 | 13.0 | 22.0 | 0.00 | 0.01 | 0.00 | 46 | 1002.8 |
| 20260504193011 | 71 | 228 | 14.0 | 25.0 | 0.00 | 0.01 | 0.00 | 46 | 1003.2 |
| 20260504191611 | 70 | 252 | 14.0 | 28.0 | 0.00 | 0.01 | 0.00 | 46 | 1003.4 |
| 20260504190052 | 70 | 195 | 14.0 | 26.0 | 0.00 | 0.01 | 0.00 | 48 | 1003.7 |
| 20260504184549 | 69 | 196 | 16.0 | 23.0 | 0.00 | 0.01 | 0.00 | 51 | 1003.7 |
| 20260504183047 | 69 | 235 | 19.0 | 26.0 | 0.00 | 0.01 | 0.00 | 50 | 1003.9 |
| 20260504181551 | 68 | 205 | 18.0 | 28.0 | 0.00 | 0.01 | 0.00 | 52 | 1004.0 |
| 20260504180046 | 69 | 203 | 17.0 | 26.0 | 0.00 | 0.01 | 0.00 | 52 | 1004.2 |
| 20260504174541 | 68 | 206 | 17.0 | 21.0 | 0.00 | 0.01 | 0.00 | 55 | 1004.3 |
| 20260504173039 | 68 | 221 | 13.0 | 25.0 | 0.00 | 0.01 | 0.00 | 54 | 1004.4 |
| 20260504171536 | 67 | 202 | 17.0 | 27.0 | 0.00 | 0.01 | 0.00 | 53 | 1004.5 |
| 20260504090104 | 54 | 195 | 10.0 | 16.0 | 0.00 | 0.01 | 0.00 | 63 | 1006.4 |
| 20260504081508 | 53 | 186 | 12.0 | 15.0 | 0.00 | 0.01 | 0.00 | 65 | 1006.6 |
| 20260504044616 | 55 | 211 | 10.0 | 17.0 | 0.00 | 0.01 | 0.01 | 60 | 1008.2 |
| 20260504043046 | 55 | 217 | 12.0 | 17.0 | 0.00 | 0.01 | 0.01 | 62 | 1008.1 |
| 20260504041538 | 56 | 217 | 12.0 | 20.0 | 0.00 | 0.01 | 0.01 | 61 | 1008.2 |
| 20260504040023 | 56 | 199 | 12.0 | 17.0 | 0.00 | 0.01 | 0.01 | 59 | 1008.1 |
| 20260504034519 | 55 | 218 | 11.0 | 16.0 | 0.00 | 0.01 | 0.01 | 61 | 1008.1 |
| 20260504033059 | 55 | 217 | 9.0 | 12.0 | 0.00 | 0.01 | 0.01 | 63 | 1008.2 |
| 20260504031558 | 55 | 206 | 8.0 | 12.0 | 0.00 | 0.01 | 0.01 | 63 | 1008.2 |
| 20260504030041 | 55 | 212 | 10.0 | 12.0 | 0.00 | 0.01 | 0.01 | 62 | 1008.3 |
| 20260504024539 | 55 | 220 | 8.0 | 13.0 | 0.00 | 0.01 | 0.01 | 64 | 1008.3 |
| 20260504023024 | 54 | 228 | 5.0 | 9.0 | 0.00 | 0.01 | 0.01 | 69 | 1008.4 |
| 20260504021519 | 53 | 360 | 4.0 | 7.0 | 0.00 | 0.01 | 0.01 | 73 | 1008.6 |
| 20260504020002 | 52 | 360 | 4.0 | 8.0 | 0.00 | 0.01 | 0.01 | 77 | 1008.6 |
| 20260504014505 | 51 | 360 | 3.0 | 5.0 | 0.00 | 0.01 | 0.01 | 83 | 1008.7 |
| 20260504013052 | 51 | 360 | 2.0 | 6.0 | 0.00 | 0.01 | 0.01 | 83 | 1008.8 |
| 20260504011542 | 51 | 360 | 5.0 | 9.0 | 0.00 | 0.01 | 0.01 | 84 | 1008.8 |
| 20260504010023 | 50 | 360 | 4.0 | 9.0 | 0.01 | 0.01 | 0.01 | 86 | 1009.0 |